Theta_e
293 293 294 293 293 292 292 291 292 293 294 295 295 296 296 295 296 293 292 291 290 289 289 288 288 289 289 290 291 291 292 298 293 286 286 283 282 283 283 284 284 283 284
291 291 290 290 290 289 289 289 290 289 290 291 291 291 291 291 290 289 288 288 287 287 287 287 286 287 287 287 288 287 288 291 293 287 284 283 282 282 283 283 282 282 283
289 289 289 288 287 286 286 287 288 288 286 287 287 287 287 287 287 287 286 286 285 284 285 285 285 285 285 285 285 284 285 285 289 287 281 282 283 282 282 283 282 283 282
288 287 286 286 286 286 286 286 286 286 286 286 285 285 285 285 285 285 285 285 284 285 285 285 284 283 283 283 283 283 283 283 283 282 281 280 281 281 281 280 280 282 281
286 285 284 285 286 285 285 285 285 285 286 286 286 285 286 285 285 285 285 284 283 283 283 284 284 284 283 283 282 282 282 282 281 280 279 280 279 278 277 279 278 279 280
284 283 283 284 284 284 284 284 285 285 285 285 285 286 285 284 285 284 284 282 282 281 280 282 282 283 283 283 283 282 281 280 279 279 279 277 277 277 278 277 277 275 275
282 282 282 281 281 281 282 283 283 283 284 284 285 285 285 284 284 283 283 282 282 281 280 279 279 279 280 280 280 281 280 280 280 279 277 276 276 277 277 276 275 274 274
281 280 281 281 281 281 281 281 282 282 282 282 283 283 283 283 283 282 282 281 281 281 281 281 280 280 279 279 278 278 278 279 279 278 278 277 278 278 277 276 274 274 275
279 279 280 280 280 280 280 280 281 281 281 281 281 281 281 281 282 281 281 280 279 279 280 281 281 280 280 279 278 277 277 277 278 278 277 277 276 276 276 275 273 272 272
279 278 279 279 280 279 279 279 279 280 279 280 279 281 281 281 281 281 280 279 278 278 279 280 280 281 280 279 277 277 276 275 276 275 275 274 274 274 273 274 273 270 270
279 278 278 279 278 279 278 278 279 278 278 278 277 278 279 280 281 281 280 279 278 278 277 278 279 279 280 279 277 277 276 276 274 273 273 274 273 273 273 273 272 270 269
278 277 277 277 278 278 278 277 277 278 277 276 276 276 277 278 280 280 280 279 279 278 277 277 278 278 278 277 277 276 275 272 273 273 273 273 272 272 272 271 270 269 270
276 275 275 276 277 277 277 276 276 276 276 276 275 276 275 276 278 279 279 278 277 277 277 276 277 277 276 275 274 274 270 273 272 272 272 272 271 270 269 269 270 269 268
275 274 274 275 275 275 277 277 277 276 275 275 275 275 275 275 276 276 276 277 276 276 276 276 276 276 275 274 272 272 272 272 271 271 271 271 270 270 269 269 268 269 268
275 274 274 274 274 274 275 275 275 275 276 277 277 276 275 274 275 276 276 276 277 277 275 275 275 275 274 274 274 272 272 271 271 271 270 270 270 270 269 269 267 267 266
274 273 274 274 274 274 274 273 274 275 276 276 276 275 275 275 275 276 277 277 278 278 275 275 275 274 273 273 273 272 272 269 271 271 270 270 269 269 269 269 268 266 266
275 273 274 272 273 273 272 273 273 273 276 277 278 278 277 275 276 277 277 278 278 279 277 275 274 274 274 273 272 272 271 272 270 269 269 269 269 268 267 267 267 267 266
273 271 274 273 273 273 273 273 273 273 273 273 275 276 277 278 278 278 277 278 277 274 275 275 274 274 274 273 272 271 271 270 269 269 269 269 268 267 267 267 267 266 265
272 273 273 273 273 272 272 271 271 271 271 272 270 270 271 274 276 277 278 278 276 276 275 274 273 273 273 272 271 270 270 269 269 269 268 267 267 266 265 266 265 263 262
271 270 271 272 271 270 270 270 270 270 270 269 269 269 270 266 269 271 273 274 273 273 273 273 273 272 271 270 270 269 269 269 268 267 267 267 267 266 265 264 264 263 264
272 271 269 270 270 270 270 269 270 270 269 269 269 269 268 267 269 269 269 270 270 270 270 271 270 270 269 269 268 268 268 268 268 267 267 267 267 265 265 265 264 263 262
271 270 269 269 270 269 269 269 269 268 268 268 268 268 270 270 270 268 269 268 269 268 269 269 269 269 269 269 268 268 268 267 268 267 267 266 266 266 265 264 264 263 262
270 269 269 269 269 267 267 268 267 267 267 267 267 267 266 266 267 267 267 268 268 267 268 267 267 266 268 267 267 268 267 267 268 268 267 266 266 265 265 264 263 262 262
269 269 269 268 267 267 267 267 266 264 266 266 266 266 266 265 265 265 265 266 266 266 266 265 264 264 265 266 267 267 266 266 267 266 265 264 264 264 264 263 263 262 260
267 267 267 267 266 265 266 265 266 266 265 265 265 265 265 264 264 264 264 264 263 264 264 264 264 264 264 263 264 265 266 266 265 264 264 264 263 263 262 262 261 261 260
265 265 266 266 265 265 265 265 265 265 264 265 264 264 264 264 264 264 264 263 262 262 263 264 264 264 264 265 265 265 265 266 265 263 264 264 263 262 262 261 260 260 259
Wind_Speed
7 7 7 8 8 8 8 7 7 7 7 7 8 8 8 9 9 9 11 8 10 9 8 8 9 8 5 6 6 6 6 5 5 3 3 2 2 3 4 3 3 5 4
6 6 8 8 8 9 9 8 8 8 8 9 8 10 9 10 10 11 11 9 9 9 9 9 10 6 9 8 6 8 7 7 3 5 3 2 3 5 4 5 4 4 5
5 6 7 8 9 9 9 8 8 9 10 9 9 10 10 10 11 12 12 11 11 10 10 10 9 8 9 6 7 6 7 6 5 4 4 1 2 5 5 4 5 6 5
6 7 7 8 8 8 8 9 9 8 10 10 10 10 9 10 11 11 11 11 11 11 11 11 10 9 8 7 7 8 6 6 6 5 4 3 3 4 4 6 6 6 6
6 7 8 7 7 8 8 8 9 10 10 10 10 10 10 9 7 10 10 10 10 11 11 11 12 12 16 12 5 6 6 5 4 4 4 2 3 4 6 6 7 8 6
6 7 7 7 7 8 8 8 9 10 10 10 10 10 11 8 13 12 10 9 9 9 9 9 8 9 12 15 16 17 12 6 5 3 3 3 4 4 4 6 6 7 5
6 6 6 6 7 8 8 9 9 9 9 10 10 10 11 10 12 12 11 8 8 8 7 6 6 5 5 6 10 12 13 14 11 5 4 5 4 5 6 6 6 6 7
5 6 6 7 7 7 8 8 8 8 8 8 8 9 9 9 12 12 11 9 8 8 7 7 6 6 6 4 5 5 6 7 7 5 5 4 5 6 4 5 6 9 9
5 5 5 5 7 7 8 7 7 7 7 7 7 8 8 8 9 8 7 6 7 7 6 6 6 6 8 7 4 4 4 4 5 8 7 6 6 6 6 4 4 6 5
6 5 5 5 5 6 6 6 5 6 6 5 7 7 6 6 6 7 5 4 5 4 4 5 5 5 6 7 4 3 3 3 4 4 4 4 3 3 4 4 3 4 4
7 7 7 6 6 6 5 4 5 5 6 6 6 4 5 4 4 4 3 2 3 3 2 3 2 3 4 6 5 4 3 3 3 3 3 2 2 2 2 3 4 4 5
5 5 6 7 5 5 6 5 4 5 5 5 4 3 2 3 2 5 5 3 3 3 3 2 1 1 2 4 3 4 4 2 2 2 2 2 2 3 3 4 6 6 7
5 4 4 3 4 4 5 5 4 4 4 4 4 3 3 2 1 4 4 4 4 2 2 1 1 1 1 1 3 2 2 2 2 3 3 3 3 3 5 6 6 7 9
7 6 5 5 4 3 3 3 4 4 4 4 4 4 4 3 4 3 3 1 1 3 2 1 2 2 2 2 2 2 3 3 3 4 4 3 3 3 4 3 5 5 6
5 5 5 4 5 5 3 3 4 3 4 4 4 4 5 6 5 6 5 4 4 3 2 2 3 3 4 3 3 3 4 4 5 4 4 4 4 4 5 3 5 5 5
7 6 6 5 5 4 4 3 4 5 8 8 6 6 4 5 4 8 10 11 9 7 3 4 5 4 4 4 5 5 5 5 5 4 4 5 5 5 5 4 5 6 8
7 7 6 5 5 5 5 5 5 4 6 10 10 9 10 6 9 10 10 12 11 10 7 6 6 5 5 5 5 5 6 4 3 4 5 5 6 6 5 6 6 7 8
6 4 6 6 6 6 5 5 4 5 5 5 8 7 9 10 11 11 10 10 8 4 6 7 7 6 6 6 6 6 5 5 5 5 6 6 6 6 7 7 7 8 9
8 7 6 6 5 5 5 5 5 5 6 5 3 5 4 7 10 11 14 8 8 8 7 8 7 7 7 6 6 5 6 6 6 6 6 6 6 6 8 7 8 9 10
7 6 6 6 5 6 6 6 6 7 6 6 6 6 3 2 5 7 8 7 6 7 7 8 7 6 6 6 6 6 7 7 7 7 7 7 7 7 8 8 7 9 9
6 6 8 6 7 7 7 7 7 6 7 7 7 6 9 6 7 7 7 7 7 8 8 7 7 6 6 6 6 7 8 8 8 8 7 7 7 7 7 7 8 8 8
7 7 8 8 7 7 8 7 7 7 7 7 7 6 13 8 8 8 8 8 7 7 7 7 7 7 7 7 7 8 8 9 8 7 8 7 7 7 7 7 8 8 8
8 8 8 7 8 7 6 7 7 7 8 7 7 6 6 7 8 8 8 8 7 7 7 7 8 7 7 7 8 9 9 9 8 7 7 7 7 7 7 8 8 8 8
8 8 8 7 7 7 8 8 7 8 8 8 8 7 7 7 8 9 8 8 8 8 7 7 7 10 8 8 8 8 9 8 7 7 9 8 8 8 7 8 7 8 8
7 7 7 8 8 8 8 8 8 8 8 8 8 7 7 7 8 8 8 7 7 7 8 7 7 10 12 13 13 13 11 12 11 9 6 8 9 10 8 7 7 7 8
7 7 7 6 7 7 7 7 8 7 8 7 7 8 8 8 8 8 7 7 7 7 9 7 9 13 13 11 13 13 13 13 12 12 9 8 7 7 7 8 9 6 7
Wind_Direction
46 53 57 55 63 63 61 52 56 58 56 72 76 78 77 77 75 82 79 73 76 73 63 67 69 55 47 45 42 38 39 25 109 109 96 80 38 5 20 5 349 354 343
45 57 61 66 67 69 65 62 56 67 64 64 70 77 73 78 78 79 79 72 77 77 70 68 60 57 55 45 47 46 42 32 71 111 101 108 38 8 356 346 350 349 340
58 63 66 69 72 71 69 67 67 72 67 68 70 75 79 76 82 81 84 85 79 72 68 65 58 56 56 50 50 51 46 46 52 106 117 82 50 21 351 351 344 341 349
72 71 64 60 66 76 79 76 72 72 78 75 75 81 79 81 83 90 90 86 81 76 71 68 62 58 59 58 56 52 53 64 68 81 85 80 23 25 350 354 343 347 335
77 80 73 66 71 74 72 76 78 76 78 80 82 79 81 81 84 92 92 93 91 84 76 71 66 64 65 57 59 54 55 65 68 78 76 78 38 13 7 343 332 335 342
79 81 86 88 82 78 80 76 77 79 82 86 84 86 82 78 84 89 97 96 94 92 88 84 74 70 67 63 65 61 48 47 61 58 59 51 41 12 0 350 345 348 344
99 89 83 86 84 82 83 84 78 78 84 86 89 91 91 92 93 92 90 91 90 89 91 90 83 71 61 71 69 68 58 60 56 49 60 36 17 8 348 345 343 321 302
99 97 97 99 92 86 88 88 89 88 84 85 86 91 92 89 94 92 88 90 88 84 83 83 83 76 57 54 62 67 68 60 48 51 51 32 12 360 350 336 327 312 295
125 111 98 100 104 103 99 98 93 95 91 87 85 90 96 97 101 98 99 98 101 92 82 75 81 79 62 46 48 51 55 56 58 46 41 33 20 5 4 324 341 331 320
142 122 113 112 114 112 112 108 98 95 94 89 79 74 66 100 104 107 97 102 109 110 99 77 70 88 81 62 43 28 23 27 7 3 9 10 357 10 4 350 333 322 318
148 146 142 140 134 133 123 115 116 112 108 98 94 74 68 52 96 94 96 128 147 141 136 126 78 55 60 50 25 9 28 360 347 332 319 311 316 318 327 328 317 298 285
157 155 152 149 148 146 138 132 137 137 128 128 126 114 76 31 60 106 99 108 122 157 158 136 171 38 48 25 4 18 19 319 311 307 305 313 312 311 316 311 300 274 267
157 149 144 136 135 141 147 147 148 165 169 167 173 178 175 176 103 76 110 118 116 129 141 197 229 345 69 350 351 355 288 291 304 291 286 272 293 327 314 290 285 274 269
165 165 162 155 145 148 161 167 181 185 189 190 194 199 192 197 207 201 199 197 204 174 176 193 280 268 267 298 294 259 283 279 280 281 284 294 302 276 281 288 289 314 304
172 168 173 179 185 169 183 194 208 216 214 204 212 207 199 212 217 210 207 212 208 209 165 242 246 239 257 258 261 256 256 247 252 254 266 278 280 275 275 282 293 306 281
179 182 186 184 183 186 188 194 230 238 225 229 226 221 218 243 220 220 224 223 238 230 205 249 254 256 257 261 254 255 247 244 250 250 258 270 278 283 290 287 270 272 285
188 180 182 193 190 190 195 209 218 213 259 240 237 234 228 235 236 233 237 239 241 252 237 242 256 257 264 259 254 249 252 245 257 262 267 270 274 277 273 281 282 279 281
188 171 191 196 198 199 205 213 222 225 227 224 234 250 248 242 234 232 240 245 244 221 245 251 254 255 256 253 250 249 254 256 253 261 260 261 263 270 277 272 273 277 282
199 201 200 203 204 207 206 215 223 228 234 241 233 239 238 256 260 261 253 238 234 237 240 242 244 248 249 247 253 258 257 258 261 262 260 258 257 256 267 268 271 269 273
207 204 194 199 198 208 213 218 220 226 232 235 233 234 213 206 229 230 233 241 237 243 249 249 249 245 248 248 254 257 262 256 252 250 256 256 256 252 262 268 266 273 273
202 199 200 206 210 211 215 220 225 227 231 235 241 227 216 225 239 238 237 238 240 245 248 251 252 250 248 249 252 255 256 262 257 256 259 261 257 260 260 262 269 268 273
202 202 200 212 212 216 221 224 227 231 236 239 244 237 239 237 239 243 241 242 241 242 248 252 254 250 247 245 248 252 254 256 259 255 261 257 258 261 261 269 271 273 276
206 207 209 214 219 221 222 228 229 231 237 240 243 243 229 235 241 245 247 248 247 246 245 244 251 250 246 239 242 243 250 253 254 255 258 263 263 264 263 269 274 278 280
211 214 217 218 215 219 225 227 228 231 237 239 238 238 238 238 242 247 249 253 250 250 246 242 241 247 253 247 247 241 242 248 251 251 250 253 259 261 258 262 270 275 283
212 214 217 220 219 219 224 229 231 233 234 236 243 244 248 245 246 248 252 250 249 253 251 244 243 250 249 247 246 247 248 243 238 234 239 243 250 257 257 261 265 272 275
216 219 224 224 227 227 227 232 233 234 235 238 240 244 248 252 253 256 252 244 248 249 251 248 246 244 250 254 252 251 246 243 238 234 235 237 239 243 244 249 255 261 270